Wind_Speed
48 46 44 42 39 37 34 32 32 31 31 32 33 34 36 37 38 38 40 43 47 50 53 57 57 57 57 60 64 68 73 78 81 81 80 78 77 76 75 74 73 71 70
52 50 48 46 44 42 40 38 37 36 36 35 35 36 36 36 35 35 35 37 39 40 43 47 50 52 54 56 58 60 63 66 70 73 76 77 76 75 75 74 74 73 72
57 55 53 51 48 46 44 43 41 40 39 38 37 36 35 34 32 31 30 28 30 33 38 42 47 50 53 54 53 54 55 57 59 61 63 66 69 70 71 72 72 72 72
60 58 57 55 52 50 48 46 44 43 41 39 37 36 35 32 29 27 24 22 26 31 35 39 44 48 50 51 51 50 51 52 53 54 56 58 60 62 64 67 68 69 70
59 57 56 54 53 51 49 47 46 44 42 40 38 36 34 31 28 25 23 24 26 31 35 39 42 45 46 47 49 49 49 50 49 50 52 53 54 56 58 60 63 64 66
54 53 52 51 49 47 46 46 45 44 42 40 39 36 34 31 29 27 26 27 30 31 34 37 39 42 42 43 45 46 47 48 49 50 52 52 53 54 55 57 59 61 63
52 51 51 49 47 45 43 42 42 42 41 40 38 36 34 33 32 30 31 32 33 33 34 35 36 39 40 41 41 42 44 46 47 49 51 52 53 54 54 54 55 57 58
55 54 53 51 48 45 42 39 38 38 39 38 37 37 35 35 34 33 33 36 37 37 37 36 36 38 40 41 41 41 42 44 45 47 49 51 52 53 53 53 53 53 54
57 57 55 53 49 45 41 37 35 34 35 37 37 37 37 37 37 37 36 37 39 39 39 39 38 39 40 41 42 43 43 44 45 45 46 47 48 49 50 51 51 51 50
58 58 56 53 50 45 41 36 33 31 30 33 36 38 38 38 39 39 39 38 39 40 40 40 40 41 42 43 44 45 46 46 47 47 46 46 47 48 49 49 49 49 49
60 59 57 54 50 46 42 38 33 29 27 28 32 36 39 40 41 41 42 40 39 40 41 42 42 43 44 45 45 47 48 48 49 49 48 48 48 49 49 48 48 47 47
62 60 57 54 50 46 42 39 35 31 27 25 26 31 37 40 42 43 43 43 42 40 40 41 43 43 44 45 47 48 49 49 50 50 49 49 49 49 49 49 48 47 47
62 60 57 53 50 47 43 40 37 33 28 25 23 25 31 37 41 43 44 45 44 43 42 41 42 43 44 45 46 48 49 49 50 49 49 48 49 49 49 49 49 48 48
62 60 58 54 51 48 46 42 38 34 30 26 23 22 24 30 37 42 44 45 46 45 45 44 43 42 43 44 46 47 48 48 49 48 47 47 47 47 47 47 47 47 47
61 61 60 58 54 50 46 44 40 35 31 27 23 21 20 23 28 36 42 45 47 47 47 47 46 45 44 45 46 47 48 48 48 48 47 46 46 45 45 45 45 44 44
60 61 62 61 59 55 49 44 40 37 32 28 25 22 20 19 21 26 33 41 46 49 49 49 49 49 48 47 47 48 48 49 49 48 48 47 46 45 45 44 43 43 42
60 61 63 64 63 59 54 46 39 34 32 28 24 22 21 19 19 20 23 30 38 45 48 50 51 52 52 51 51 50 50 50 50 49 49 48 47 46 45 44 43 43 42
58 59 61 63 65 64 59 51 42 34 28 26 23 21 20 19 19 18 19 21 26 34 42 48 52 54 54 55 54 54 54 53 52 51 50 49 48 47 46 45 44 43 42
58 58 59 62 65 67 65 58 48 37 29 23 20 18 18 18 18 18 18 18 20 23 30 38 46 52 56 57 58 58 57 57 56 55 54 52 51 50 49 47 46 45 44
57 59 61 62 63 66 67 65 56 44 33 24 19 16 14 14 15 16 16 17 17 19 22 27 34 43 51 56 59 61 61 61 60 59 58 57 55 54 52 50 49 47 46
57 59 61 61 62 63 66 67 63 54 42 30 22 17 13 11 11 11 12 13 15 16 18 21 25 31 39 48 55 60 63 64 64 63 63 62 60 59 57 55 53 51 49
60 59 59 60 60 62 64 66 66 63 55 43 32 24 18 14 10 8 9 10 12 14 15 17 20 24 29 36 44 53 59 63 65 66 66 66 65 64 62 60 58 56 54
61 59 58 58 59 60 61 63 64 64 63 57 48 37 29 22 16 12 9 9 10 11 13 14 15 18 21 26 32 39 48 55 61 66 67 68 68 68 67 65 64 62 59
61 60 58 57 57 59 60 61 61 62 62 61 59 54 48 40 32 25 19 15 12 11 10 10 10 11 14 17 22 27 34 41 50 57 64 67 69 70 70 70 69 67 65
59 60 59 58 58 58 59 59 59 59 59 59 58 57 56 53 50 46 41 36 31 27 22 18 14 9 6 7 11 17 22 27 34 42 51 59 65 69 71 72 71 71 69
57 59 60 60 60 59 59 58 57 57 56 56 55 55 54 53 52 50 49 46 44 41 38 35 31 26 21 15 8 4 8 14 20 27 34 43 52 60 66 70 71 72 71
Wind_Direction
323 321 319 316 314 310 306 301 296 292 289 286 284 284 284 283 283 279 270 261 253 247 241 237 235 233 234 235 238 241 243 243 244 243 241 241 241 240 240 239 239 238 237
318 316 314 311 308 305 301 298 294 291 288 287 285 285 284 285 285 281 275 265 252 241 234 230 227 226 227 230 234 236 238 240 242 242 242 241 240 239 239 239 238 238 237
314 312 310 307 304 301 298 294 292 289 287 286 285 284 283 284 282 280 275 261 241 230 227 226 224 223 226 228 230 231 233 236 238 240 240 239 239 238 238 237 237 237 236
313 310 308 304 301 298 294 291 288 286 284 283 282 281 280 279 277 275 267 249 234 224 222 225 225 226 229 231 232 234 235 237 238 239 239 238 237 236 236 236 235 235 235
316 314 311 306 302 297 292 288 285 282 280 278 277 276 274 271 269 264 252 240 232 226 226 226 227 229 231 232 233 234 235 235 235 237 236 235 235 234 234 234 234 234 235
325 322 319 315 309 302 294 287 281 278 276 274 272 270 267 263 259 252 244 237 232 233 232 230 231 231 231 233 233 233 235 234 234 234 232 232 233 233 234 234 234 235 236
335 333 330 326 321 313 304 293 282 275 271 269 267 265 262 256 252 247 241 235 233 234 233 233 234 233 232 232 232 233 233 233 233 232 231 232 232 232 234 235 236 237 238
340 339 337 333 328 323 316 306 292 279 269 263 261 259 257 253 248 245 240 236 236 236 236 236 236 234 233 233 232 232 231 232 232 232 232 232 232 233 234 235 237 238 239
343 341 339 337 333 329 323 315 305 291 276 263 256 253 252 250 246 243 239 237 237 237 238 238 237 235 233 232 232 231 230 231 231 232 231 231 231 231 233 234 235 237 237
343 342 341 340 338 335 331 325 316 302 287 271 258 251 248 247 245 242 239 237 237 236 236 236 236 235 233 232 231 229 228 228 229 230 231 231 230 229 230 232 233 235 237
344 343 342 341 341 339 337 333 328 317 301 283 266 254 248 245 243 242 240 236 235 235 235 235 235 234 231 230 230 227 226 226 226 227 228 229 229 228 229 231 233 235 238
345 344 343 341 340 340 339 337 333 328 316 299 279 262 251 246 243 242 240 238 235 234 234 234 234 233 231 229 228 227 226 225 225 226 227 227 228 229 230 232 235 238 240
347 347 346 344 341 339 337 335 333 329 323 312 296 275 259 248 244 242 241 239 236 234 233 232 232 232 231 229 227 226 225 224 224 225 226 227 228 230 232 234 237 240 242
351 351 350 348 344 340 336 332 329 326 322 316 307 292 273 256 247 243 241 240 238 236 234 232 230 230 229 227 226 226 225 224 224 225 226 228 228 230 231 234 237 239 242
355 356 355 352 349 345 339 333 328 324 320 314 307 298 286 271 256 246 242 241 240 238 236 234 231 230 229 227 226 226 226 226 226 227 228 229 229 230 231 234 236 239 241
358 359 359 358 354 350 346 339 332 325 320 314 307 299 290 281 270 257 247 242 240 239 238 237 234 232 230 229 227 227 227 227 227 228 228 229 230 231 232 234 236 238 239
360 1 2 1 359 356 351 345 338 328 320 314 306 298 291 285 277 268 258 249 243 240 239 238 237 235 233 231 230 228 228 227 227 228 229 229 230 231 233 235 236 237 238
0 1 3 4 4 3 359 353 346 337 326 316 307 298 290 284 279 275 268 260 251 244 241 239 238 237 236 234 232 231 230 229 228 228 228 229 230 231 232 234 236 237 237
2 3 4 5 6 7 6 3 358 350 340 327 315 303 291 284 279 276 273 268 262 254 247 243 240 238 237 236 235 233 232 231 231 230 230 230 230 231 232 233 234 235 236
4 5 6 7 8 10 11 10 8 4 357 348 336 321 305 291 281 277 276 274 270 265 257 250 244 241 239 238 236 235 234 233 232 232 232 232 232 232 233 233 234 234 235
8 9 10 9 10 12 14 16 17 16 13 9 3 353 340 320 300 288 283 281 279 276 270 261 253 247 242 240 238 237 236 235 234 233 233 233 233 234 234 234 234 235 235
12 12 11 12 14 16 18 20 23 24 25 24 21 17 11 2 346 323 304 294 290 288 282 274 264 255 248 244 240 239 237 236 236 235 234 234 234 234 234 235 235 235 235
16 15 14 14 16 19 22 24 26 29 31 34 34 32 29 25 18 8 350 329 314 305 297 287 277 266 256 249 244 241 239 238 237 236 235 235 235 235 235 235 235 235 235
19 19 18 17 19 22 24 26 28 30 33 36 39 41 43 43 41 39 34 25 13 357 339 322 304 284 268 256 248 244 241 239 238 237 236 236 235 235 235 235 236 235 236
20 21 21 22 23 25 26 27 28 30 33 35 38 41 43 46 48 50 50 50 49 47 43 38 30 14 339 286 261 250 245 242 240 238 237 236 236 236 235 236 236 236 236
22 23 24 25 27 28 28 29 29 31 32 34 36 38 40 42 44 46 47 48 49 50 50 50 49 48 45 40 27 325 266 252 246 243 240 238 237 236 235 235 235 236 236
Height
5511 5504 5497 5490 5484 5479 5474 5470 5466 5464 5462 5460 5458 5457 5455 5453 5450 5448 5446 5446 5448 5452 5459 5467 5477 5486 5495 5502 5509 5516 5524 5533 5544 5554 5564 5573 5581 5590 5598 5606 5615 5623 5630
5502 5494 5487 5480 5474 5469 5464 5460 5456 5453 5450 5448 5446 5444 5442 5440 5437 5434 5432 5431 5433 5438 5444 5453 5462 5471 5479 5486 5493 5499 5506 5515 5524 5533 5543 5552 5561 5570 5579 5587 5596 5604 5612
5490 5482 5474 5468 5462 5456 5451 5447 5443 5440 5437 5435 5433 5431 5429 5427 5425 5422 5420 5419 5421 5427 5433 5441 5448 5456 5464 5470 5477 5484 5491 5499 5507 5516 5524 5533 5542 5551 5560 5568 5577 5585 5593
5475 5467 5459 5452 5446 5441 5436 5432 5429 5426 5423 5421 5419 5418 5416 5415 5414 5412 5411 5410 5412 5417 5423 5429 5435 5442 5449 5456 5464 5471 5479 5486 5494 5501 5509 5517 5526 5534 5542 5551 5559 5567 5576
5460 5450 5442 5434 5427 5422 5418 5414 5412 5410 5408 5406 5405 5405 5404 5404 5404 5403 5403 5404 5405 5408 5413 5419 5424 5431 5437 5444 5451 5459 5467 5474 5481 5488 5496 5503 5511 5519 5528 5535 5543 5550 5558
5446 5436 5426 5418 5410 5404 5399 5396 5394 5392 5391 5391 5391 5391 5391 5392 5392 5394 5395 5396 5398 5401 5404 5409 5415 5421 5427 5433 5440 5448 5455 5462 5469 5476 5483 5490 5498 5506 5513 5520 5528 5536 5544
5437 5426 5415 5405 5396 5388 5382 5378 5375 5375 5375 5375 5376 5376 5377 5379 5380 5383 5385 5387 5390 5392 5396 5400 5405 5410 5416 5423 5430 5437 5444 5450 5457 5464 5471 5477 5484 5493 5501 5508 5514 5520 5528
5429 5418 5407 5396 5385 5376 5369 5363 5359 5357 5358 5359 5360 5362 5363 5365 5368 5371 5374 5377 5380 5383 5387 5391 5395 5400 5406 5413 5420 5426 5432 5439 5445 5452 5459 5465 5471 5478 5486 5494 5501 5507 5513
5423 5411 5399 5388 5376 5367 5358 5351 5346 5343 5342 5343 5345 5347 5349 5351 5354 5357 5361 5365 5369 5373 5377 5381 5386 5391 5396 5402 5409 5415 5421 5428 5434 5440 5446 5452 5459 5466 5473 5480 5487 5494 5500
5417 5404 5392 5380 5368 5358 5349 5341 5335 5331 5328 5328 5329 5332 5335 5337 5340 5344 5348 5353 5357 5361 5366 5370 5375 5380 5385 5390 5397 5403 5410 5416 5422 5429 5435 5441 5447 5454 5461 5468 5475 5481 5487
5410 5397 5384 5372 5361 5351 5341 5333 5327 5321 5318 5315 5315 5317 5320 5323 5326 5330 5334 5340 5345 5349 5353 5358 5362 5367 5372 5378 5384 5391 5397 5404 5411 5417 5423 5430 5436 5443 5449 5456 5462 5469 5475
5404 5390 5377 5365 5354 5344 5335 5326 5319 5313 5309 5305 5304 5304 5306 5310 5313 5316 5320 5325 5331 5336 5341 5345 5350 5354 5360 5366 5372 5378 5385 5392 5399 5406 5412 5418 5425 5431 5438 5444 5450 5456 5462
5398 5384 5371 5358 5347 5337 5329 5321 5313 5307 5301 5297 5294 5292 5292 5295 5299 5302 5306 5311 5317 5323 5328 5333 5338 5343 5348 5354 5360 5367 5373 5380 5387 5394 5400 5407 5413 5419 5426 5432 5438 5444 5449
5394 5379 5366 5354 5342 5331 5320 5312 5305 5299 5293 5289 5285 5282 5281 5282 5285 5288 5293 5298 5303 5309 5314 5320 5326 5331 5336 5342 5349 5355 5362 5369 5376 5382 5389 5395 5401 5408 5414 5420 5426 5431 5436
5391 5377 5363 5349 5337 5325 5314 5303 5295 5289 5283 5279 5276 5274 5271 5271 5271 5274 5278 5283 5288 5294 5300 5306 5312 5319 5324 5330 5337 5343 5350 5357 5364 5370 5377 5384 5390 5396 5402 5407 5413 5418 5423
5389 5376 5361 5346 5332 5319 5307 5296 5285 5277 5272 5268 5266 5264 5262 5261 5261 5262 5264 5268 5274 5279 5286 5291 5298 5304 5311 5317 5324 5331 5338 5345 5352 5358 5365 5371 5378 5384 5390 5395 5401 5407 5412
5388 5374 5360 5344 5329 5314 5300 5288 5279 5270 5262 5258 5255 5253 5253 5252 5252 5252 5253 5255 5259 5264 5270 5276 5283 5289 5296 5303 5310 5317 5325 5332 5339 5345 5352 5359 5365 5371 5377 5383 5389 5395 5401
5388 5375 5361 5346 5330 5313 5296 5281 5269 5261 5254 5248 5245 5244 5243 5243 5243 5243 5244 5245 5247 5250 5255 5260 5267 5273 5281 5288 5295 5303 5310 5318 5325 5332 5339 5346 5352 5359 5366 5372 5378 5384 5389
5389 5376 5362 5347 5330 5313 5295 5278 5264 5253 5245 5240 5237 5235 5235 5234 5235 5236 5236 5237 5238 5240 5242 5246 5251 5257 5264 5272 5279 5287 5295 5302 5310 5318 5325 5332 5340 5347 5353 5360 5366 5372 5378
5391 5377 5362 5347 5332 5316 5299 5281 5264 5250 5240 5234 5231 5228 5228 5227 5228 5229 5229 5230 5230 5231 5232 5234 5237 5242 5248 5255 5263 5270 5278 5286 5294 5303 5310 5318 5326 5333 5340 5347 5354 5361 5367
5393 5378 5365 5351 5337 5322 5306 5288 5270 5253 5241 5233 5228 5225 5224 5223 5223 5223 5224 5224 5224 5224 5224 5225 5227 5229 5233 5238 5245 5253 5261 5269 5278 5286 5294 5302 5310 5318 5326 5334 5341 5348 5355
5394 5381 5369 5357 5343 5328 5312 5296 5280 5264 5249 5238 5231 5226 5224 5222 5221 5220 5220 5220 5219 5219 5218 5218 5218 5219 5221 5224 5229 5236 5243 5251 5260 5269 5277 5285 5294 5302 5310 5318 5326 5334 5342
5400 5387 5376 5363 5350 5336 5322 5308 5293 5278 5264 5251 5240 5233 5227 5224 5221 5220 5218 5217 5216 5214 5213 5212 5211 5211 5212 5214 5217 5221 5227 5233 5241 5250 5258 5267 5276 5284 5293 5301 5310 5319 5327
5407 5395 5383 5371 5358 5345 5331 5318 5305 5293 5280 5268 5257 5247 5239 5232 5227 5223 5220 5217 5215 5212 5210 5208 5206 5206 5206 5206 5208 5210 5213 5218 5224 5230 5239 5247 5256 5265 5274 5283 5292 5302 5310
5415 5403 5392 5379 5366 5353 5341 5329 5317 5306 5294 5284 5274 5264 5255 5247 5240 5234 5228 5224 5219 5215 5211 5208 5205 5203 5202 5202 5202 5203 5205 5207 5211 5215 5221 5228 5236 5245 5254 5264 5274 5283 5293
5423 5412 5401 5388 5375 5363 5351 5340 5328 5318 5307 5297 5288 5279 5271 5263 5256 5249 5242 5236 5230 5225 5220 5215 5211 5208 5205 5202 5201 5200 5200 5201 5202 5205 5208 5212 5218 5226 5234 5244 5254 5264 5274